Flag for Germany Weather past 2 weeks in Westerstede, Lower Saxony, Germany

Now
34 °F

Passing clouds.


Feels Like: 34 °F
Forecast: 36 / 55 °F
Wind: 2 mph from West

Location: Wittmundhaven

Current Time: Apr 28, 2015 at 3:15:38 AM

Latest Report: Apr 28, 2015 at 2:20 AM


Visibility: N/A

Pressure: 29.86 "Hg

Humidity: 81%

Dew point: 28 °F

Location of WesterstedeLocation

Historic Weather in Westerstede — Graph

°F

Westerstede temperature yesterday

Maximum temperature yesterday: 50 °F (at 11:20 AM)
Minimum temperature yesterday: 36 °F (at 11:20 PM)
Average temperature yesterday: 45 °F

Past Weeks' High & Low Weather Summary

 TemperatureHumidityPressure
High66 °F (Apr 24, 4:20 PM)100% (Apr 18, 4:20 AM)30.48 "Hg (Apr 18, 4:20 AM)
Low34 °F (Apr 20, 5:20 AM)40% (Apr 24, 4:20 PM)29.68 "Hg (Apr 25, 6:20 AM)
Average47 °F78%30.10 "Hg
* Reported Apr 13 1:20 AM — Apr 28 1:20 AM, Westerstede, Weather by CustomWeather, © 2015

Note: Actual official high and low records may vary slightly from our data, if they occured in-between our weather recording intervals... More about our weather records

Advertising

Westerstede weather history for previous 24 hours

 ConditionsComfort  
Time TempWeatherWind HumidityBarometerVisibility
1:20 AM
Tue, Apr 28
34 °FPassing clouds.2 mph81%29.86 "HgN/A
12:20 AM36 °FPassing clouds.3 mph75%29.86 "HgN/A
11:20 PM
Mon, Apr 27
36 °FPassing clouds.2 mph75%29.86 "HgN/A
10:20 PM39 °FPassing clouds.3 mph65%29.86 "HgN/A
9:20 PM41 °FPartly sunny.5 mph61%29.86 "HgN/A
8:20 PM43 °FScattered clouds.8 mph57%29.86 "HgN/A
7:20 PM45 °FPartly sunny.9 mph53%29.83 "HgN/A
6:20 PM45 °FPartly sunny.12 mph57%29.83 "HgN/A
5:20 PM46 °FPartly sunny.14 mph53%29.83 "HgN/A
4:20 PM48 °FBroken clouds.15 mph54%29.83 "HgN/A
3:20 PM50 °FBroken clouds.15 mph58%29.83 "HgN/A
2:20 PM48 °FBroken clouds.13 mph66%29.80 "HgN/A
1:20 PM48 °FBroken clouds.15 mph66%29.80 "HgN/A
12:20 PM48 °FPartly sunny.13 mph58%29.80 "HgN/A
11:20 AM50 °FPartly sunny.10 mph43%29.77 "HgN/A
10:20 AM48 °FScattered clouds.10 mph62%29.77 "HgN/A
9:20 AM46 °FScattered clouds.9 mph62%29.74 "HgN/A
8:20 AM45 °FScattered clouds.6 mph76%29.74 "HgN/A
7:20 AM43 °FPartly sunny.6 mph81%29.74 "HgN/A
6:20 AM43 °FPassing clouds.6 mph81%29.74 "HgN/A
5:20 AM45 °FPartly cloudy.7 mph76%29.71 "HgN/A
4:20 AM45 °FQuite cool.6 mph76%29.71 "HgN/A
3:20 AM45 °FQuite cool.8 mph81%29.71 "HgN/A
Weather by CustomWeather, © 2015

See weather overviewHow to use our weather pages